Погода в Янышах

Россия / Чувашская Республика     55°55′34″N   46°57′28″E
темп.,
°C
ветер,
м/с
пор.,
м/с
влажн.,
%
обл.,
%
осадки,
мм/ч
давл.,
гПа
погр.,
м
21 июня, пн
пн2100:00+19з34860 0.0 102162
03:00+18зюз22880 0.0 102225
06:00+21зюз34810 0.0 1021146
09:00+25зюз34670 0.0 1021513
12:00+28з45591 0.0 10211226
15:00+28зюз44584 0.0 10211405
18:00+27зюз47721 0.0 1020351
21:00+22зюз47851 0.0 1021110
22 июня, вт
вт2200:00+20з34810 0.0 102151
03:00+19зсз22820 0.0 102218
06:00+22з24773 0.0 1022129
09:00+26з336390 0.0 1022483
12:00+29з33548 0.0 10221150
15:00+29зюз335194 0.0 10211521
18:00+26зюз3673100 0.0 1021240
21:00+23зсз367976 0.0 102188
23 июня, ср
ср2300:00+21з33824 0.0 102133
03:00+19зсз228922 0.0 102112
06:00+23з35791 0.0 1021147
09:00+27зсз34650 0.0 1021594
12:00+29зсз34530 0.0 10201532
15:00+30зюз44491 0.0 10191457
18:00+24зюз597666 0.2 1018242
21:00+22зюз3586100 1.3 101981
24 июня, чт
чт2400:00+21з338689 0.4 101937
03:00+19сз118195 0.4 101911
06:00+23сз127398 0.0 101871
09:00+27зсз2261100 0.0 1018401
12:00+29зсз2255100 0.0 1018941
15:00+30з225297 0.0 1017868
18:00+28зюз2470100 0.1 1016109
21:00+21ююв117588 1.7 101612
25 июня, пт
пт2500:00+20з238479 1.3 101626
03:00+20юз228819 1.3 101630
06:00+23юз118112 0.0 101589
09:00+28з22650 0.0 1015485
12:00+30зсз34545 0.0 10151045
15:00+32з35440 0.0 10142187
18:00+29зюз47710 0.0 1012250
21:00+22з71087100 1.8 1013201